#Datum;Uhrzeit;WR;Pac;DaySum;Status;WR;Pac;DaySum;Status;Pdc1;Udc;Temp;WR;Pac;DaySum;Status;Pdc1;Udc;Temp;WR;Pac;DaySum;Status;Pdc1;Udc;Temp;WR;Pac;DaySum;Status;Pdc1;Pdc2;Udc1;Udc2;Temp;WR;Pac;DaySum;Status;Pdc1;Pdc2;Udc1;Udc2;Temp;WR;Pac;DaySum;Status;Pdc1;Udc;Temp;WR;Pac;DaySum;Status;Pdc1;Udc;Temp;WR;Pac;DaySum;Status;Pdc1;Udc;Temp
15.01.19;23:55:00;1;255;12772;0;2;0;2119;0;0;0;0;3;0;1228;0;0;0;0;4;0;1702;0;0;0;0;5;0;4806;0;0;0;0;0;0;6;0;3441;0;0;0;0;0;0;7;0;2211;0;0;0;0;8;0;2231;0;0;0;0;9;0;1138;0;0;0;0
15.01.19;23:50:00;1;215;12750;0;2;0;2119;0;0;0;0;3;0;1228;0;0;0;0;4;0;1702;0;0;0;0;5;0;4806;0;0;0;0;0;0;6;0;3441;0;0;0;0;0;0;7;0;2211;0;0;0;0;8;0;2231;0;0;0;0;9;0;1138;0;0;0;0
15.01.19;23:45:00;1;215;12732;0;2;0;2119;0;0;0;0;3;0;1228;0;0;0;0;4;0;1702;0;0;0;0;5;0;4806;0;0;0;0;0;0;6;0;3441;0;0;0;0;0;0;7;0;2211;0;0;0;0;8;0;2231;0;0;0;0;9;0;1138;0;0;0;0
15.01.19;23:40:00;1;236;12714;0;2;0;2119;0;0;0;0;3;0;1228;0;0;0;0;4;0;1702;0;0;0;0;5;0;4806;0;0;0;0;0;0;6;0;3441;0;0;0;0;0;0;7;0;2211;0;0;0;0;8;0;2231;0;0;0;0;9;0;1138;0;0;0;0
15.01.19;23:35:00;1;630;12678;0;2;0;2119;0;0;0;0;3;0;1228;0;0;0;0;4;0;1702;0;0;0;0;5;0;4806;0;0;0;0;0;0;6;0;3441;0;0;0;0;0;0;7;0;2211;0;0;0;0;8;0;2231;0;0;0;0;9;0;1138;0;0;0;0
15.01.19;23:30:00;1;323;12650;0;2;0;2119;0;0;0;0;3;0;1228;0;0;0;0;4;0;1702;0;0;0;0;5;0;4806;0;0;0;0;0;0;6;0;3441;0;0;0;0;0;0;7;0;2211;0;0;0;0;8;0;2231;0;0;0;0;9;0;1138;0;0;0;0
15.01.19;23:25:00;1;386;12623;0;2;0;2119;0;0;0;0;3;0;1228;0;0;0;0;4;0;1702;0;0;0;0;5;0;4806;0;0;0;0;0;0;6;0;3441;0;0;0;0;0;0;7;0;2211;0;0;0;0;8;0;2231;0;0;0;0;9;0;1138;0;0;0;0
15.01.19;23:20:00;1;454;12591;0;2;0;2119;0;0;0;0;3;0;1228;0;0;0;0;4;0;1702;0;0;0;0;5;0;4806;0;0;0;0;0;0;6;0;3441;0;0;0;0;0;0;7;0;2211;0;0;0;0;8;0;2231;0;0;0;0;9;0;1138;0;0;0;0
15.01.19;23:15:00;1;625;12553;0;2;0;2119;0;0;0;0;3;0;1228;0;0;0;0;4;0;1702;0;0;0;0;5;0;4806;0;0;0;0;0;0;6;0;3441;0;0;0;0;0;0;7;0;2211;0;0;0;0;8;0;2231;0;0;0;0;9;0;1138;0;0;0;0
15.01.19;23:10:00;1;471;12512;0;2;0;2119;0;0;0;0;3;0;1228;0;0;0;0;4;0;1702;0;0;0;0;5;0;4806;0;0;0;0;0;0;6;0;3441;0;0;0;0;0;0;7;0;2211;0;0;0;0;8;0;2231;0;0;0;0;9;0;1138;0;0;0;0
15.01.19;23:05:00;1;868;12454;0;2;0;2119;0;0;0;0;3;0;1228;0;0;0;0;4;0;1702;0;0;0;0;5;0;4806;0;0;0;0;0;0;6;0;3441;0;0;0;0;0;0;7;0;2211;0;0;0;0;8;0;2231;0;0;0;0;9;0;1138;0;0;0;0
15.01.19;23:00:00;1;464;12408;0;2;0;2119;0;0;0;0;3;0;1228;0;0;0;0;4;0;1702;0;0;0;0;5;0;4806;0;0;0;0;0;0;6;0;3441;0;0;0;0;0;0;7;0;2211;0;0;0;0;8;0;2231;0;0;0;0;9;0;1138;0;0;0;0
15.01.19;22:55:00;1;462;12369;0;2;0;2119;0;0;0;0;3;0;1228;0;0;0;0;4;0;1702;0;0;0;0;5;0;4806;2;0;0;0;0;0;6;0;3441;2;0;0;0;0;0;7;0;2211;0;0;0;0;8;0;2231;0;0;0;0;9;0;1138;0;0;0;0
15.01.19;22:50:00;1;464;12331;0;2;0;2119;0;0;0;0;3;0;1228;0;0;0;0;4;0;1702;0;0;0;0;5;0;4806;2;0;0;0;0;0;6;0;3441;2;0;0;0;0;0;7;0;2211;0;0;0;0;8;0;2231;0;0;0;0;9;0;1138;0;0;0;0
15.01.19;22:45:00;1;460;12292;0;2;0;2119;0;0;0;0;3;0;1228;0;0;0;0;4;0;1702;0;0;0;0;5;0;4806;2;0;0;0;0;0;6;0;3441;2;0;0;0;0;0;7;0;2211;0;0;0;0;8;0;2231;0;0;0;0;9;0;1138;0;0;0;0
15.01.19;22:40:00;1;508;12254;0;2;0;2119;0;0;0;0;3;0;1228;0;0;0;0;4;0;1702;0;0;0;0;5;0;4806;2;0;0;0;0;0;6;0;3441;2;0;0;0;0;0;7;0;2211;0;0;0;0;8;0;2231;0;0;0;0;9;0;1138;0;0;0;0
15.01.19;22:35:00;1;925;12211;0;2;0;2119;0;0;0;0;3;0;1228;0;0;0;0;4;0;1702;0;0;0;0;5;0;4806;2;0;0;0;0;0;6;0;3441;2;0;0;0;0;0;7;0;2211;0;0;0;0;8;0;2231;0;0;0;0;9;0;1138;0;0;0;0
15.01.19;22:30:00;1;558;12140;0;2;0;2119;0;0;0;0;3;0;1228;0;0;0;0;4;0;1702;0;0;0;0;5;0;4806;2;0;0;0;0;0;6;0;3441;2;0;0;0;0;0;7;0;2211;0;0;0;0;8;0;2231;0;0;0;0;9;0;1138;0;0;0;0
15.01.19;22:25:00;1;571;12094;0;2;0;2119;0;0;0;0;3;0;1228;0;0;0;0;4;0;1702;0;0;0;0;5;0;4806;2;0;0;0;0;0;6;0;3441;2;0;0;0;0;0;7;0;2211;0;0;0;0;8;0;2231;0;0;0;0;9;0;1138;0;0;0;0
15.01.19;22:20:00;1;568;12046;0;2;0;2119;0;0;0;0;3;0;1228;0;0;0;0;4;0;1702;0;0;0;0;5;0;4806;2;0;0;0;0;0;6;0;3441;2;0;0;0;0;0;7;0;2211;0;0;0;0;8;0;2231;0;0;0;0;9;0;1138;0;0;0;0
15.01.19;22:15:00;1;531;11999;0;2;0;2119;0;0;0;0;3;0;1228;0;0;0;0;4;0;1702;0;0;0;0;5;0;4806;2;0;0;0;0;0;6;0;3441;2;0;0;0;0;0;7;0;2211;0;0;0;0;8;0;2231;0;0;0;0;9;0;1138;0;0;0;0
15.01.19;22:10:00;1;527;11954;0;2;0;2119;0;0;0;0;3;0;1228;0;0;0;0;4;0;1702;0;0;0;0;5;0;4806;2;0;0;0;0;0;6;0;3441;2;0;0;0;0;0;7;0;2211;0;0;0;0;8;0;2231;0;0;0;0;9;0;1138;0;0;0;0
15.01.19;22:05:00;1;1110;11910;0;2;0;2119;0;0;0;0;3;0;1228;0;0;0;0;4;0;1702;0;0;0;0;5;0;4806;2;0;0;0;0;0;6;0;3441;2;0;0;0;0;0;7;0;2211;0;0;0;0;8;0;2231;0;0;0;0;9;0;1138;0;0;0;0
15.01.19;22:00:00;1;468;11842;0;2;0;2119;0;0;0;0;3;0;1228;0;0;0;0;4;0;1702;0;0;0;0;5;0;4806;2;0;0;0;0;0;6;0;3441;2;0;0;0;0;0;7;0;2211;0;0;0;0;8;0;2231;0;0;0;0;9;0;1138;0;0;0;0
15.01.19;21:55:00;1;470;11803;0;2;0;2119;0;0;0;0;3;0;1228;0;0;0;0;4;0;1702;0;0;0;0;5;0;4806;2;0;0;0;0;0;6;0;3441;2;0;0;0;0;0;7;0;2211;0;0;0;0;8;0;2231;0;0;0;0;9;0;1138;0;0;0;0
15.01.19;21:50:00;1;471;11764;0;2;0;2119;0;0;0;0;3;0;1228;0;0;0;0;4;0;1702;0;0;0;0;5;0;4806;2;0;0;0;0;0;6;0;3441;2;0;0;0;0;0;7;0;2211;0;0;0;0;8;0;2231;0;0;0;0;9;0;1138;0;0;0;0
15.01.19;21:45:00;1;516;11725;0;2;0;2119;0;0;0;0;3;0;1228;0;0;0;0;4;0;1702;0;0;0;0;5;0;4806;2;0;0;0;0;0;6;0;3441;2;0;0;0;0;0;7;0;2211;0;0;0;0;8;0;2231;0;0;0;0;9;0;1138;0;0;0;0
15.01.19;21:40:00;1;521;11681;0;2;0;2119;0;0;0;0;3;0;1228;0;0;0;0;4;0;1702;0;0;0;0;5;0;4806;2;0;0;0;0;0;6;0;3441;2;0;0;0;0;0;7;0;2211;0;0;0;0;8;0;2231;0;0;0;0;9;0;1138;0;0;0;0
15.01.19;21:35:00;1;898;11638;0;2;0;2119;0;0;0;0;3;0;1228;0;0;0;0;4;0;1702;0;0;0;0;5;0;4806;2;0;0;0;0;0;6;0;3441;2;0;0;0;0;0;7;0;2211;0;0;0;0;8;0;2231;0;0;0;0;9;0;1138;0;0;0;0
15.01.19;21:30:00;1;517;11571;0;2;0;2119;0;0;0;0;3;0;1228;0;0;0;0;4;0;1702;0;0;0;0;5;0;4806;2;0;0;0;0;0;6;0;3441;2;0;0;0;0;0;7;0;2211;0;0;0;0;8;0;2231;0;0;0;0;9;0;1138;0;0;0;0
15.01.19;21:25:00;1;625;11527;0;2;0;2119;0;0;0;0;3;0;1228;0;0;0;0;4;0;1702;0;0;0;0;5;0;4806;2;0;0;0;0;0;6;0;3441;2;0;0;0;0;0;7;0;2211;0;0;0;0;8;0;2231;0;0;0;0;9;0;1138;0;0;0;0
15.01.19;21:20:00;1;618;11474;0;2;0;2119;0;0;0;0;3;0;1228;0;0;0;0;4;0;1702;0;0;0;0;5;0;4806;2;0;0;0;0;0;6;0;3441;2;0;0;0;0;0;7;0;2211;0;0;0;0;8;0;2231;0;0;0;0;9;0;1138;0;0;0;0
15.01.19;21:15:00;1;587;11423;0;2;0;2119;0;0;0;0;3;0;1228;0;0;0;0;4;0;1702;0;0;0;0;5;0;4806;2;0;0;0;0;0;6;0;3441;2;0;0;0;0;0;7;0;2211;0;0;0;0;8;0;2231;0;0;0;0;9;0;1138;0;0;0;0
15.01.19;21:10:00;1;1130;11374;0;2;0;2119;0;0;0;0;3;0;1228;0;0;0;0;4;0;1702;0;0;0;0;5;0;4806;2;0;0;0;0;0;6;0;3441;2;0;0;0;0;0;7;0;2211;0;0;0;0;8;0;2231;0;0;0;0;9;0;1138;0;0;0;0
15.01.19;21:05:00;1;1155;11296;0;2;0;2119;0;0;0;0;3;0;1228;0;0;0;0;4;0;1702;0;0;0;0;5;0;4806;2;0;0;0;0;0;6;0;3441;2;0;0;0;0;0;7;0;2211;0;0;0;0;8;0;2231;0;0;0;0;9;0;1138;0;0;0;0
15.01.19;21:00:00;1;601;11189;0;2;0;2119;0;0;0;0;3;0;1228;0;0;0;0;4;0;1702;0;0;0;0;5;0;4806;2;0;0;0;0;0;6;0;3441;2;0;0;0;0;0;7;0;2211;0;0;0;0;8;0;2231;0;0;0;0;9;0;1138;0;0;0;0
15.01.19;20:55:00;1;598;11139;0;2;0;2119;0;0;0;0;3;0;1228;0;0;0;0;4;0;1702;0;0;0;0;5;0;4806;2;0;0;0;0;0;6;0;3441;2;0;0;0;0;0;7;0;2211;0;0;0;0;8;0;2231;0;0;0;0;9;0;1138;0;0;0;0
15.01.19;20:50:00;1;608;11088;0;2;0;2119;0;0;0;0;3;0;1228;0;0;0;0;4;0;1702;0;0;0;0;5;0;4806;2;0;0;0;0;0;6;0;3441;2;0;0;0;0;0;7;0;2211;0;0;0;0;8;0;2231;0;0;0;0;9;0;1138;0;0;0;0
15.01.19;20:45:00;1;805;11037;0;2;0;2119;0;0;0;0;3;0;1228;0;0;0;0;4;0;1702;0;0;0;0;5;0;4806;2;0;0;0;0;0;6;0;3441;2;0;0;0;0;0;7;0;2211;0;0;0;0;8;0;2231;0;0;0;0;9;0;1138;0;0;0;0
15.01.19;20:40:00;1;710;10960;0;2;0;2119;0;0;0;0;3;0;1228;0;0;0;0;4;0;1702;0;0;0;0;5;0;4806;2;0;0;0;0;0;6;0;3441;2;0;0;0;0;0;7;0;2211;0;0;0;0;8;0;2231;0;0;0;0;9;0;1138;0;0;0;0
15.01.19;20:35:00;1;719;10906;0;2;0;2119;0;0;0;0;3;0;1228;0;0;0;0;4;0;1702;0;0;0;0;5;0;4806;2;0;0;0;0;0;6;0;3441;2;0;0;0;0;0;7;0;2211;0;0;0;0;8;0;2231;0;0;0;0;9;0;1138;0;0;0;0
15.01.19;20:30:00;1;1014;10844;0;2;0;2119;0;0;0;0;3;0;1228;0;0;0;0;4;0;1702;0;0;0;0;5;0;4806;2;0;0;0;0;0;6;0;3441;2;0;0;0;0;0;7;0;2211;0;0;0;0;8;0;2231;0;0;0;0;9;0;1138;0;0;0;0
15.01.19;20:25:00;1;1066;10761;0;2;0;2119;0;0;0;0;3;0;1228;0;0;0;0;4;0;1702;0;0;0;0;5;0;4806;2;0;0;0;0;0;6;0;3441;2;0;0;0;0;0;7;0;2211;0;0;0;0;8;0;2231;0;0;0;0;9;0;1138;0;0;0;0
15.01.19;20:20:00;1;1016;10672;0;2;0;2119;0;0;0;0;3;0;1228;0;0;0;0;4;0;1702;0;0;0;0;5;0;4806;2;0;0;0;0;0;6;0;3441;2;0;0;0;0;0;7;0;2211;0;0;0;0;8;0;2231;0;0;0;0;9;0;1138;0;0;0;0
15.01.19;20:15:00;1;1243;10588;0;2;0;2119;0;0;0;0;3;0;1228;0;0;0;0;4;0;1702;0;0;0;0;5;0;4806;2;0;0;0;0;0;6;0;3441;2;0;0;0;0;0;7;0;2211;0;0;0;0;8;0;2231;0;0;0;0;9;0;1138;0;0;0;0
15.01.19;20:10:00;1;1023;10475;0;2;0;2119;0;0;0;0;3;0;1228;0;0;0;0;4;0;1702;0;0;0;0;5;0;4806;2;0;0;0;0;0;6;0;3441;2;0;0;0;0;0;7;0;2211;0;0;0;0;8;0;2231;0;0;0;0;9;0;1138;0;0;0;0
15.01.19;20:05:00;1;1550;10389;0;2;0;2119;0;0;0;0;3;0;1228;0;0;0;0;4;0;1702;0;0;0;0;5;0;4806;2;0;0;0;0;0;6;0;3441;2;0;0;0;0;0;7;0;2211;0;0;0;0;8;0;2231;0;0;0;0;9;0;1138;0;0;0;0
15.01.19;20:00:00;1;1003;10265;0;2;0;2119;0;0;0;0;3;0;1228;0;0;0;0;4;0;1702;0;0;0;0;5;0;4806;2;0;0;0;0;0;6;0;3441;2;0;0;0;0;0;7;0;2211;0;0;0;0;8;0;2231;0;0;0;0;9;0;1138;0;0;0;0
15.01.19;19:55:00;1;1008;10181;0;2;0;2119;0;0;0;0;3;0;1228;0;0;0;0;4;0;1702;0;0;0;0;5;0;4806;2;0;0;0;0;0;6;0;3441;2;0;0;0;0;0;7;0;2211;0;0;0;0;8;0;2231;0;0;0;0;9;0;1138;0;0;0;0
15.01.19;19:50:00;1;1930;10077;0;2;0;2119;0;0;0;0;3;0;1228;0;0;0;0;4;0;1702;0;0;0;0;5;0;4806;2;0;0;0;0;0;6;0;3441;2;0;0;0;0;0;7;0;2211;0;0;0;0;8;0;2231;0;0;0;0;9;0;1138;0;0;0;0
15.01.19;19:45:00;1;1164;9914;0;2;0;2119;0;0;0;0;3;0;1228;0;0;0;0;4;0;1702;0;0;0;0;5;0;4806;2;0;0;0;0;0;6;0;3441;2;0;0;0;0;0;7;0;2211;0;0;0;0;8;0;2231;0;0;0;0;9;0;1138;0;0;0;0
15.01.19;19:40:00;1;974;9831;0;2;0;2119;0;0;0;0;3;0;1228;0;0;0;0;4;0;1702;0;0;0;0;5;0;4806;2;0;0;0;0;0;6;0;3441;2;0;0;0;0;0;7;0;2211;0;0;0;0;8;0;2231;0;0;0;0;9;0;1138;0;0;0;0
15.01.19;19:35:00;1;1468;9750;0;2;0;2119;0;0;0;0;3;0;1228;0;0;0;0;4;0;1702;0;0;0;0;5;0;4806;2;0;0;0;0;0;6;0;3441;2;0;0;0;0;0;7;0;2211;0;0;0;0;8;0;2231;0;0;0;0;9;0;1138;0;0;0;0
15.01.19;19:30:00;1;1563;9631;0;2;0;2119;0;0;0;0;3;0;1228;0;0;0;0;4;0;1702;0;0;0;0;5;0;4806;2;0;0;0;0;0;6;0;3441;2;0;0;0;0;0;7;0;2211;0;0;0;0;8;0;2231;0;0;0;0;9;0;1138;0;0;0;0
15.01.19;19:25:00;1;1156;9496;0;2;0;2119;0;0;0;0;3;0;1228;0;0;0;0;4;0;1702;0;0;0;0;5;0;4806;2;0;0;0;0;0;6;0;3441;2;0;0;0;0;0;7;0;2211;0;0;0;0;8;0;2231;0;0;0;0;9;0;1138;0;0;0;0
15.01.19;19:20:00;1;836;9399;0;2;0;2119;0;0;0;0;3;0;1228;0;0;0;0;4;0;1702;0;0;0;0;5;0;4806;2;0;0;0;0;0;6;0;3441;2;0;0;0;0;0;7;0;2211;0;0;0;0;8;0;2231;0;0;0;0;9;0;1138;0;0;0;0
15.01.19;19:15:00;1;870;9329;0;2;0;2119;0;0;0;0;3;0;1228;0;0;0;0;4;0;1702;0;0;0;0;5;0;4806;2;0;0;0;0;0;6;0;3441;2;0;0;0;0;0;7;0;2211;0;0;0;0;8;0;2231;0;0;0;0;9;0;1138;0;0;0;0
15.01.19;19:10:00;1;2584;9256;0;2;0;2119;0;0;0;0;3;0;1228;0;0;0;0;4;0;1702;0;0;0;0;5;0;4806;2;0;0;0;0;0;6;0;3441;2;0;0;0;0;0;7;0;2211;0;0;0;0;8;0;2231;0;0;0;0;9;0;1138;0;0;0;0
15.01.19;19:05:00;1;2741;9036;0;2;0;2119;0;0;0;0;3;0;1228;0;0;0;0;4;0;1702;0;0;0;0;5;0;4806;2;0;0;0;0;0;6;0;3441;2;0;0;0;0;0;7;0;2211;0;0;0;0;8;0;2231;0;0;0;0;9;0;1138;0;0;0;0
15.01.19;19:00:00;1;3056;8809;0;2;0;2119;0;0;0;0;3;0;1228;0;0;0;0;4;0;1702;0;0;0;0;5;0;4806;2;0;0;0;0;0;6;0;3441;2;0;0;0;0;0;7;0;2211;0;0;0;0;8;0;2231;0;0;0;0;9;0;1138;0;0;0;0
15.01.19;18:55:00;1;2644;8561;0;2;0;2119;0;0;0;0;3;0;1228;0;0;0;0;4;0;1702;0;0;0;0;5;0;4806;2;0;0;0;0;0;6;0;3441;2;0;0;0;0;0;7;0;2211;0;0;0;0;8;0;2231;0;0;0;0;9;0;1138;0;0;0;0
15.01.19;18:50:00;1;3472;8341;0;2;0;2119;0;0;0;0;3;0;1228;0;0;0;0;4;0;1702;0;0;0;0;5;0;4806;2;0;0;0;0;0;6;0;3441;2;0;0;0;0;0;7;0;2211;0;0;0;0;8;0;2231;0;0;0;0;9;0;1138;0;0;0;0
15.01.19;18:45:00;1;3268;8018;0;2;0;2119;0;0;0;0;3;0;1228;0;0;0;0;4;0;1702;0;0;0;0;5;0;4806;2;0;0;0;0;0;6;0;3441;2;0;0;0;0;0;7;0;2211;0;0;0;0;8;0;2231;0;0;0;0;9;0;1138;0;0;0;0
15.01.19;18:40:00;1;634;7803;0;2;0;2119;0;0;0;0;3;0;1228;0;0;0;0;4;0;1702;0;0;0;0;5;0;4806;2;0;0;0;0;0;6;0;3441;2;0;0;0;0;0;7;0;2211;0;0;0;0;8;0;2231;0;0;0;0;9;0;1138;0;0;0;0
15.01.19;18:35:00;1;3230;7718;0;2;0;2119;0;0;0;0;3;0;1228;0;0;0;0;4;0;1702;0;0;0;0;5;0;4806;2;0;0;0;0;0;6;0;3441;2;0;0;0;0;0;7;0;2211;0;0;0;0;8;0;2231;0;0;0;0;9;0;1138;0;0;0;0
15.01.19;18:30:00;1;486;7500;0;2;0;2119;0;0;0;0;3;0;1228;0;0;0;0;4;0;1702;0;0;0;0;5;0;4806;2;0;0;0;0;0;6;0;3441;2;0;0;0;0;0;7;0;2211;0;0;0;0;8;0;2231;0;0;0;0;9;0;1138;0;0;0;0
15.01.19;18:25:00;1;352;7464;0;2;0;2119;0;0;0;0;3;0;1228;0;0;0;0;4;0;1702;0;0;0;0;5;0;4806;2;0;0;0;0;0;6;0;3441;2;0;0;0;0;0;7;0;2211;0;0;0;0;8;0;2231;0;0;0;0;9;0;1138;0;0;0;0
15.01.19;18:20:00;1;476;7434;0;2;0;2119;0;0;0;0;3;0;1228;0;0;0;0;4;0;1702;0;0;0;0;5;0;4806;2;0;0;0;0;0;6;0;3441;2;0;0;0;0;0;7;0;2211;0;0;0;0;8;0;2231;0;0;0;0;9;0;1138;0;0;0;0
15.01.19;18:15:00;1;542;7393;0;2;0;2119;0;0;0;0;3;0;1228;0;0;0;0;4;0;1702;0;0;0;0;5;0;4806;2;0;0;0;0;0;6;0;3441;2;0;0;0;0;0;7;0;2211;0;0;0;0;8;0;2231;0;0;0;0;9;0;1138;0;0;0;0
15.01.19;18:10:00;1;491;7348;0;2;0;2119;0;0;0;0;3;0;1228;0;0;0;0;4;0;1702;0;0;0;0;5;0;4806;2;0;0;0;0;0;6;0;3441;2;0;0;0;0;0;7;0;2211;0;0;0;0;8;0;2231;0;0;0;0;9;0;1138;0;0;0;0
15.01.19;18:05:00;1;537;7306;0;2;0;2119;0;0;0;0;3;0;1228;0;0;0;0;4;0;1702;0;0;0;0;5;0;4806;2;0;0;0;0;0;6;0;3441;2;0;0;0;0;0;7;0;2211;0;0;0;0;8;0;2231;0;0;0;0;9;0;1138;0;0;0;0
15.01.19;18:00:00;1;2354;7250;0;2;0;2119;0;0;0;0;3;0;1228;0;0;0;0;4;0;1702;0;0;0;0;5;0;4806;2;0;0;0;0;0;6;0;3441;2;0;0;0;0;0;7;0;2211;0;0;0;0;8;0;2231;0;0;0;0;9;0;1138;0;0;0;0
15.01.19;17:55:00;1;1871;7092;0;2;0;2119;0;0;0;0;3;0;1228;0;0;0;0;4;0;1702;0;0;0;0;5;0;4806;2;0;0;0;0;0;6;0;3441;2;0;0;0;0;0;7;0;2211;0;0;0;0;8;0;2231;0;0;0;0;9;0;1138;0;0;0;0
15.01.19;17:50:00;1;2153;6956;0;2;0;2119;0;0;0;0;3;0;1228;0;0;0;0;4;0;1702;0;0;0;0;5;0;4806;2;0;0;0;0;0;6;0;3441;2;0;0;0;0;0;7;0;2211;0;0;0;0;8;0;2231;0;0;0;0;9;0;1138;0;0;0;0
15.01.19;17:45:00;1;2197;6818;0;2;0;2119;0;0;0;0;3;0;1228;0;0;0;0;4;0;1702;0;0;0;0;5;0;4806;2;0;0;0;0;0;6;0;3441;2;0;0;0;0;0;7;0;2211;0;0;0;0;8;0;2231;0;0;0;0;9;0;1138;0;0;0;0
15.01.19;17:40:00;1;2531;6615;0;2;0;2119;0;0;0;0;3;0;1228;0;0;0;0;4;0;1702;0;0;0;0;5;0;4806;2;0;0;0;0;0;6;0;3441;2;0;0;0;0;0;7;0;2211;0;0;0;0;8;0;2231;0;0;0;0;9;0;1138;0;0;0;0
15.01.19;17:35:00;1;3113;6405;0;2;0;2119;0;0;0;0;3;0;1228;0;0;0;0;4;0;1702;0;0;0;0;5;0;4806;2;0;0;0;0;0;6;0;3441;2;0;0;0;0;0;7;0;2211;0;0;0;0;8;0;2231;0;0;0;0;9;0;1138;0;0;0;0
15.01.19;17:30:00;1;1589;6134;0;2;0;2119;0;0;0;0;3;0;1228;0;0;0;0;4;0;1702;0;0;0;0;5;0;4806;2;0;0;0;0;0;6;0;3441;2;0;0;0;0;0;7;0;2211;0;0;0;0;8;0;2231;0;0;0;0;9;0;1138;0;0;0;0
15.01.19;17:25:00;1;456;6003;0;2;0;2119;0;0;0;0;3;0;1228;0;0;0;0;4;0;1702;0;0;0;0;5;0;4806;2;0;0;0;0;0;6;0;3441;2;0;0;0;0;0;7;0;2211;0;0;0;0;8;0;2231;0;0;0;0;9;0;1138;0;0;0;0
15.01.19;17:20:00;1;645;5948;0;2;0;2119;0;0;0;0;3;0;1228;0;0;0;0;4;0;1702;0;0;0;0;5;0;4806;2;0;0;0;0;0;6;0;3441;2;0;0;0;0;0;7;0;2211;0;0;0;0;8;0;2231;0;0;0;0;9;0;1138;0;0;0;0
15.01.19;17:15:00;1;777;5902;0;2;0;2119;0;0;0;0;3;0;1228;0;0;0;0;4;0;1702;0;0;0;0;5;0;4806;2;0;0;0;0;0;6;0;3441;2;0;0;0;0;0;7;0;2211;0;0;0;0;8;0;2231;0;0;0;0;9;0;1138;0;0;0;0
15.01.19;17:10:00;1;2274;5807;0;2;0;2119;0;0;0;0;3;0;1228;0;0;0;0;4;0;1702;0;0;0;0;5;0;4806;2;0;0;0;0;0;6;0;3441;2;0;0;0;0;0;7;0;2211;0;0;0;0;8;0;2231;0;0;0;0;9;0;1138;0;0;0;0
15.01.19;17:05:00;1;2276;5618;0;2;0;2119;0;0;0;0;3;0;1228;0;0;0;0;4;0;1702;0;0;0;0;5;0;4806;2;0;0;0;0;0;6;0;3441;2;0;0;0;0;0;7;0;2211;0;0;0;0;8;0;2231;0;0;0;0;9;0;1138;0;0;0;0
15.01.19;17:00:00;1;2506;5427;0;2;0;2119;0;0;0;0;3;0;1228;0;0;35;1;4;0;1702;0;0;0;0;5;0;4806;2;0;0;0;0;0;6;0;3441;2;0;0;0;0;0;7;0;2211;0;0;0;0;8;0;2231;0;0;0;0;9;0;1138;0;0;0;0
15.01.19;16:55:00;1;2492;5220;0;2;0;2119;0;0;173;5;3;0;1228;6;0;285;11;4;0;1702;0;0;10;1;5;0;4806;2;0;0;0;0;0;6;0;3441;2;0;0;0;0;0;7;0;2211;0;0;0;0;8;0;2231;0;0;0;0;9;0;1138;0;0;0;0
15.01.19;16:50:00;1;1632;5015;0;2;0;2119;6;0;297;8;3;0;1228;6;0;341;11;4;0;1702;2;0;84;7;5;0;4806;2;0;0;14;14;3;6;0;3441;1;0;0;0;0;1;7;0;2211;0;0;0;0;8;0;2231;0;0;0;0;9;0;1138;0;0;0;0
15.01.19;16:45:00;1;576;4935;0;2;0;2119;6;0;337;8;3;0;1228;6;0;404;11;4;0;1702;1;0;126;7;5;0;4806;1;0;0;333;346;18;6;0;3441;1;10;8;144;343;15;7;0;2211;0;0;0;0;8;0;2231;0;0;211;8;9;0;1138;0;0;225;5
15.01.19;16:40:00;1;331;4886;0;2;0;2119;6;0;344;8;3;0;1228;6;0;405;11;4;0;1702;1;0;133;7;5;0;4806;1;0;0;366;376;19;6;0;3441;23;6;6;392;255;18;7;0;2211;0;0;175;8;8;0;2231;0;0;182;7;9;0;1138;6;0;288;7
15.01.19;16:35:00;1;259;4858;0;2;0;2119;6;0;376;8;3;0;1228;6;4;426;11;4;0;1702;1;0;180;7;5;7;4806;1;0;0;399;600;19;6;0;3441;23;5;5;331;474;18;7;0;2211;6;0;346;12;8;0;2231;6;0;352;11;9;0;1138;6;0;372;8
15.01.19;16:30:00;1;211;4838;0;2;0;2119;6;0;398;8;3;1;1228;6;3;480;11;4;0;1702;1;0;208;8;5;26;4805;26;4;4;407;639;20;6;0;3441;23;1;4;412;576;18;7;0;2211;6;0;406;12;8;0;2231;6;0;410;11;9;0;1138;4;0;420;8
15.01.19;16:25:00;1;210;4820;0;2;2;2119;6;7;402;8;3;3;1228;6;5;504;11;4;0;1702;3;0;223;8;5;76;4803;4;23;25;381;607;21;6;0;3441;8;6;2;411;593;19;7;0;2211;6;2;449;12;8;2;2231;6;2;451;12;9;2;1138;6;1;493;8
15.01.19;16:20:00;1;210;4802;0;2;0;2119;6;0;416;8;3;2;1228;6;4;502;11;4;0;1702;3;0;221;8;5;82;4796;4;20;20;381;607;21;6;0;3441;1;4;7;479;593;19;7;2;2211;4;4;434;12;8;2;2231;4;4;438;12;9;3;1137;6;2;472;8
15.01.19;16:15:00;1;494;4785;0;2;0;2119;6;0;414;9;3;4;1228;3;10;470;11;4;0;1702;3;0;230;8;5;76;4790;4;18;21;381;607;21;6;18;3441;1;11;21;548;523;20;7;2;2211;3;4;422;12;8;1;2230;3;4;424;12;9;1;1137;6;1;486;8
15.01.19;16:10:00;1;210;4741;0;2;3;2119;6;7;414;9;3;2;1227;6;6;519;11;4;0;1702;3;0;199;8;5;111;4783;4;40;36;381;607;21;6;62;3439;4;20;25;450;420;21;7;2;2210;6;4;466;13;8;1;2230;6;4;468;12;9;2;1137;6;2;515;8
15.01.19;16:05:00;1;211;4723;0;2;51;2119;6;71;383;9;3;12;1227;6;25;501;12;4;13;1702;3;14;198;8;5;179;4774;4;82;67;381;607;21;6;107;3433;4;52;60;450;420;21;7;34;2210;6;44;442;13;8;29;2230;6;42;448;12;9;0;1137;6;0;569;8
15.01.19;16:00:00;1;210;4706;0;2;74;2115;4;99;381;9;3;6;1226;6;11;545;12;4;36;1701;3;38;198;8;5;197;4759;4;94;79;381;607;21;6;128;3423;4;55;63;450;421;21;7;47;2207;4;58;465;13;8;36;2228;4;59;459;12;9;8;1137;4;14;525;8
15.01.19;15:55:00;1;268;4688;0;2;55;2109;4;77;358;9;3;4;1226;6;10;533;12;4;10;1698;3;10;199;8;5;159;4742;4;65;65;381;607;21;6;101;3413;4;42;46;451;420;20;7;5;2203;6;9;488;13;8;6;2225;6;10;480;13;9;8;1136;3;13;509;8
15.01.19;15:50:00;1;288;4666;0;2;84;2104;4;106;377;9;3;0;1225;6;0;572;12;4;32;1697;3;33;198;8;5;213;4729;4;98;86;381;607;21;6;134;3404;4;78;86;450;420;20;7;60;2203;6;80;453;13;8;53;2224;6;81;453;13;9;6;1135;6;11;555;8
15.01.19;15:45:00;1;311;4641;0;2;75;2097;4;97;379;9;3;15;1225;3;28;506;12;4;19;1695;3;20;198;8;5;202;4711;4;95;78;381;607;20;6;125;3393;4;46;52;450;420;20;7;63;2198;4;84;371;13;8;57;2220;4;87;381;13;9;5;1135;6;9;546;8
15.01.19;15:40:00;1;318;4615;0;2;90;2091;4;115;373;9;3;21;1223;6;32;539;12;4;52;1693;3;54;198;9;5;243;4694;4;113;101;381;607;21;6;152;3383;4;74;81;451;420;20;7;80;2193;4;104;445;13;8;72;2215;4;104;438;13;9;5;1134;6;8;560;9
15.01.19;15:35:00;1;566;4569;0;2;131;2083;4;158;381;9;3;77;1222;4;108;473;12;4;84;1689;3;87;205;8;5;304;4673;4;146;129;381;607;20;6;192;3370;4;83;86;451;420;20;7;120;2186;4;155;468;13;8;114;2209;4;150;481;13;9;13;1134;6;18;568;9
15.01.19;15:30:00;1;269;4539;0;2;94;2073;4;117;372;10;3;16;1215;3;25;527;12;4;51;1682;3;54;198;9;5;244;4648;4;118;102;381;607;20;6;150;3354;4;65;70;450;420;20;7;78;2176;4;106;432;13;8;64;2200;4;101;473;13;9;8;1133;6;10;562;9
15.01.19;15:25:00;1;239;4517;0;2;86;2065;4;109;369;10;3;9;1214;6;14;543;12;4;40;1678;3;42;198;8;5;231;4628;4;115;100;381;607;20;6;149;3341;4;81;89;451;420;20;7;63;2170;4;94;382;13;8;56;2195;4;91;463;13;9;5;1132;4;10;553;9
15.01.19;15:20:00;1;207;4497;0;2;70;2058;4;90;369;10;3;5;1213;6;11;542;12;4;28;1674;3;29;198;9;5;208;4609;4;100;83;381;607;20;6;131;3329;4;59;69;450;420;20;7;48;2165;4;79;378;13;8;49;2190;4;82;418;13;9;9;1132;3;15;525;9
15.01.19;15:15:00;1;207;4479;0;2;69;2052;4;93;371;10;3;7;1212;6;13;539;12;4;32;1672;3;33;198;9;5;210;4591;4;103;87;381;607;20;6;137;3318;4;69;79;450;420;20;7;52;2161;4;87;417;13;8;51;2186;4;85;431;13;9;6;1131;6;9;549;9
15.01.19;15:10:00;1;272;4462;0;2;86;2046;4;108;358;10;3;14;1212;6;23;522;12;4;37;1669;3;38;198;9;5;248;4574;4;119;107;381;607;20;6;157;3306;4;85;93;450;420;20;7;74;2156;4;105;445;13;8;77;2181;4;105;422;13;9;8;1130;6;11;549;9
15.01.19;15:05:00;1;283;4443;0;2;114;2039;4;138;373;10;3;39;1211;6;59;498;12;4;67;1666;3;69;198;9;5;307;4553;4;150;122;381;607;20;6;190;3293;4;93;96;450;420;20;7;109;2150;4;126;488;13;8;104;2175;4;139;474;13;9;12;1130;6;15;568;9
15.01.19;15:00:00;1;687;4424;0;2;93;2030;4;113;371;10;3;7;1208;6;11;547;13;4;45;1661;3;46;198;9;5;252;4527;4;119;104;381;607;20;6;160;3277;4;76;82;450;420;20;7;51;2141;4;97;470;13;8;65;2166;4;104;467;13;9;8;1129;6;11;560;9
15.01.19;14:55:00;1;207;4380;0;2;77;2022;4;96;373;10;3;7;1208;6;13;540;13;4;21;1657;3;21;198;9;5;220;4507;4;110;95;381;607;20;6;144;3264;4;75;84;451;421;20;7;59;2137;4;91;439;13;8;51;2161;4;91;436;13;9;6;1128;4;10;546;9
15.01.19;14:50:00;1;247;4362;0;2;127;2015;4;149;368;10;3;60;1207;6;90;494;13;4;81;1655;3;84;205;9;5;327;4488;4;162;135;386;607;20;6;208;3252;4;114;125;459;445;20;7;127;2132;4;150;451;13;8;116;2157;4;146;462;13;9;30;1128;3;42;542;10
15.01.19;14:45:00;1;250;4342;0;2;206;2005;4;234;381;10;3;111;1202;4;151;532;13;4;155;1649;5;161;232;8;5;494;4460;4;254;205;405;630;20;6;367;3233;4;195;213;576;560;20;7;217;2122;4;250;429;13;8;216;2147;4;254;444;13;9;112;1125;4;142;508;10
15.01.19;14:40:00;1;292;4321;0;2;242;1988;4;271;392;10;3;145;1193;4;184;508;13;4;190;1636;5;198;232;8;5;556;4418;4;286;239;407;622;20;6;425;3202;4;194;208;573;567;20;7;243;2104;4;289;449;13;8;258;2129;4;295;462;13;9;136;1116;4;164;525;10
15.01.19;14:35:00;1;207;4301;0;2;275;1968;4;304;390;10;3;166;1181;4;207;511;13;4;224;1620;5;233;230;8;5;634;4371;4;314;270;417;662;20;6;433;3166;4;208;231;501;531;20;7;291;2084;4;326;476;13;8;281;2108;4;323;465;13;9;156;1104;4;182;513;10
15.01.19;14:30:00;1;208;4284;0;2;259;1945;4;289;392;10;3;155;1167;4;195;519;13;4;203;1601;5;212;233;8;5;571;4318;4;290;246;412;639;20;6;343;3131;4;217;216;450;420;20;7;289;2059;4;329;483;13;8;291;2085;4;329;481;13;9;160;1092;4;187;523;10
15.01.19;14:25:00;1;208;4266;0;2;214;1923;4;241;384;10;3;126;1154;4;165;511;13;4;164;1584;5;171;234;8;5;479;4271;4;241;201;408;607;20;6;296;3102;4;94;96;450;421;20;7;230;2035;4;266;471;13;8;233;2060;4;266;461;13;9;123;1078;4;152;523;10
15.01.19;14:20:00;1;564;4249;0;2;233;1905;4;261;388;10;3;137;1144;4;175;520;13;4;178;1570;5;186;232;9;5;518;4232;4;259;223;408;626;20;6;314;3078;4;195;196;450;420;20;7;250;2015;4;294;471;13;8;253;2040;4;293;469;13;9;136;1068;4;166;516;10
15.01.19;14:15:00;1;205;4205;0;2;287;1886;4;317;392;10;3;175;1132;4;215;513;13;4;231;1556;5;241;237;9;5;598;4188;4;301;255;407;637;20;6;365;3051;4;188;190;451;420;20;7;317;1995;4;355;487;13;8;322;2019;4;360;484;13;9;174;1056;4;202;526;10
15.01.19;14:10:00;1;205;4188;0;2;248;1862;4;278;386;10;3;147;1118;4;188;520;13;4;193;1537;5;201;234;9;5;538;4137;4;278;228;411;639;20;6;320;3021;4;157;156;450;420;20;7;281;1969;4;321;479;13;8;281;1993;4;317;482;13;9;153;1042;4;180;520;10
15.01.19;14:05:00;1;205;4171;0;2;232;1841;4;259;384;10;3;133;1106;4;172;522;13;4;175;1520;5;182;232;9;5;493;4093;4;239;211;399;650;20;6;294;2994;4;142;142;451;420;20;7;259;1945;4;288;455;13;8;257;1969;4;288;466;13;9;132;1029;4;161;527;10
15.01.19;14:00:00;1;205;4154;0;2;236;1822;4;264;392;10;3;139;1094;4;178;514;13;4;175;1506;5;182;229;9;5;491;4052;4;247;211;412;627;20;6;306;2970;4;195;200;450;420;20;7;273;1924;4;300;471;13;8;268;1948;4;304;470;13;9;143;1018;4;169;507;10
15.01.19;13:55:00;1;238;4136;0;2;236;1802;4;264;384;10;3;139;1083;4;180;519;13;4;178;1491;5;186;231;9;5;480;4011;4;241;206;396;607;20;6;295;2944;4;165;169;450;420;20;7;256;1901;4;283;477;13;8;255;1926;4;291;481;13;9;134;1007;4;163;529;10
15.01.19;13:50:00;1;248;4117;0;2;186;1783;4;213;389;10;3;108;1071;4;147;502;13;4;128;1476;5;134;231;9;5;400;3972;4;203;170;397;604;20;6;281;2920;4;143;163;495;509;20;7;171;1880;4;208;446;13;8;179;1904;4;209;447;13;9;91;995;4;115;498;10
15.01.19;13:45:00;1;535;4096;0;2;239;1767;4;267;381;11;3;142;1062;4;181;518;13;4;183;1466;5;191;234;9;5;502;3938;4;254;208;405;607;20;6;382;2896;4;171;189;583;564;20;7;248;1866;4;276;449;13;8;243;1889;4;273;468;13;9;129;987;4;155;519;10